CW3996 Weather Reports


Display with metric or nautical units.
time (UTC)temp
F
wind
direction
speed
MPH
gust
MPH
rain 1hr
in
rain 24hr
in
rain mn
in
humidity
%
barometer
mb
20260902232716 81 205 20.0 30.0 0.00 0.00 0.00 1 1014.0
20260902232231 81 214 17.0 29.0 0.00 0.00 0.00 1 1014.0
20260902231724 81 195 22.0 29.0 0.00 0.00 0.00 1 1013.9
20260902231223 82 238 19.0 31.0 0.00 0.00 0.00 1 1013.9
20260902230716 82 197 21.0 31.0 0.00 0.00 0.00 1 1014.0
20260902230233 83 205 23.0 33.0 0.00 0.00 0.00 1 1014.0
20260902225726 83 212 22.0 32.0 0.00 0.00 0.00 1 1014.0
20260902225221 83 221 21.0 32.0 0.00 0.00 0.00 1 1014.0
20260902224714 84 224 20.0 31.0 0.00 0.00 0.00 2 1014.0
20260902224228 84 252 22.0 32.0 0.00 0.00 0.00 2 1014.1
20260902223726 84 235 19.0 30.0 0.00 0.00 0.00 2 1014.2
20260902223220 83 204 18.0 30.0 0.00 0.00 0.00 4 1014.3
20260902222714 82 226 23.0 30.0 0.00 0.00 0.00 4 1014.3
20260902222228 81 209 15.0 33.0 0.00 0.00 0.00 3 1014.3
20260902221722 81 219 19.0 32.0 0.00 0.00 0.00 3 1014.4
20260902221216 82 221 19.0 32.0 0.00 0.00 0.00 3 1014.4
20260902220729 82 204 22.0 34.0 0.00 0.00 0.00 3 1014.3
20260902220245 83 234 23.0 36.0 0.00 0.00 0.00 1 1014.6
20260902215717 83 219 21.0 31.0 0.00 0.00 0.00 3 1014.6
20260902215215 83 205 17.0 32.0 0.00 0.00 0.00 5 1014.7
20260902214729 83 213 20.0 32.0 0.00 0.00 0.00 4 1014.7
20260902214223 83 227 19.0 30.0 0.00 0.00 0.00 4 1014.8
20260902213717 83 242 18.0 25.0 0.00 0.00 0.00 4 1014.9
20260902213231 83 210 20.0 36.0 0.00 0.00 0.00 6 1015.0
20260902212724 83 233 16.0 36.0 0.00 0.00 0.00 7 1015.0
20260902212239 82 223 19.0 30.0 0.00 0.00 0.00 7 1015.0
20260902211732 82 219 19.0 29.0 0.00 0.00 0.00 7 1015.0
20260902211246 84 225 22.0 29.0 0.00 0.00 0.00 7 1015.2
20260902210722 84 252 17.0 34.0 0.00 0.00 0.00 8 1015.0
20260902210217 83 236 19.0 34.0 0.00 0.00 0.00 7 1015.1
20260902205730 83 238 19.0 33.0 0.00 0.00 0.00 7 1015.1
20260902205245 84 221 23.0 33.0 0.00 0.00 0.00 6 1015.2
20260902204717 84 221 16.0 28.0 0.00 0.00 0.00 7 1015.2
20260902204251 84 244 18.0 28.0 0.00 0.00 0.00 8 1015.2
20260902203724 83 210 19.0 30.0 0.00 0.00 0.00 9 1015.3
20260902203219 83 205 20.0 30.0 0.00 0.00 0.00 9 1015.4
20260902202753 83 225 17.0 27.0 0.00 0.00 0.00 8 1015.4
20260902202226 83 215 16.0 30.0 0.00 0.00 0.00 8 1015.6
20260902201740 83 215 20.0 30.0 0.00 0.00 0.00 10 1015.5
20260902201218 83 223 18.0 28.0 0.00 0.00 0.00 10 1015.6
20260902200751 83 216 22.0 34.0 0.00 0.00 0.00 12 1015.5
20260902200226 82 226 20.0 34.0 0.00 0.00 0.00 13 1015.5
20260902195719 83 230 17.0 27.0 0.00 0.00 0.00 13 1015.7
20260902195233 82 206 16.0 27.0 0.00 0.00 0.00 14 1015.8
20260902194727 83 208 20.0 31.0 0.00 0.00 0.00 13 1015.9
20260902194242 82 219 17.0 30.0 0.00 0.00 0.00 14 1015.9
20260902193735 82 224 19.0 30.0 0.00 0.00 0.00 14 1015.8
20260902193227 82 213 19.0 30.0 0.00 0.00 0.00 13 1015.9
20260902192720 82 216 19.0 28.0 0.00 0.00 0.00 14 1015.9
20260902192218 82 239 20.0 28.0 0.00 0.00 0.00 16 1016.0
20260902191733 82 202 17.0 26.0 0.00 0.00 0.00 16 1016.1
20260902191226 82 229 18.0 25.0 0.00 0.00 0.00 16 1016.2
20260902190719 82 227 18.0 32.0 0.00 0.00 0.00 15 1016.3
20260902190215 81 212 21.0 32.0 0.00 0.00 0.00 15 1016.4
20260902185728 81 227 17.0 31.0 0.00 0.00 0.00 16 1016.4
20260902185223 81 225 20.0 31.0 0.00 0.00 0.00 15 1016.4
20260902184720 81 221 21.0 29.0 0.00 0.00 0.00 16 1016.4
20260902184254 81 190 20.0 29.0 0.00 0.00 0.00 17 1016.5
20260902183726 81 228 22.0 29.0 0.00 0.00 0.00 17 1016.6
20260902183220 80 242 19.0 29.0 0.00 0.00 0.00 15 1016.6
20260902182733 81 197 18.0 30.0 0.00 0.00 0.00 16 1016.7
20260902182246 80 213 20.0 30.0 0.00 0.00 0.00 14 1016.7
20260902181719 80 209 19.0 32.0 0.00 0.00 0.00 16 1016.7
20260902181233 80 254 19.0 32.0 0.00 0.00 0.00 17 1016.8
20260902180726 80 240 16.0 28.0 0.00 0.00 0.00 19 1016.7
20260902180221 79 212 18.0 28.0 0.00 0.00 0.00 18 1016.8
20260902175719 78 211 17.0 28.0 0.00 0.00 0.00 23 1016.8
20260902175233 79 207 20.0 30.0 0.00 0.00 0.00 22 1016.8
20260902174726 79 217 18.0 28.0 0.00 0.00 0.00 22 1016.7
20260902174242 79 207 14.0 27.0 0.00 0.00 0.00 25 1016.9
20260902173714 78 190 15.0 23.0 0.00 0.00 0.00 25 1016.9
20260902173249 78 221 18.0 28.0 0.00 0.00 0.00 26 1017.0
20260902172722 78 247 15.0 28.0 0.00 0.00 0.00 27 1017.0
20260902172236 77 200 16.0 23.0 0.00 0.00 0.00 28 1017.1
20260902171728 77 198 15.0 20.0 0.00 0.00 0.00 28 1017.1
20260902171242 77 223 14.0 22.0 0.00 0.00 0.00 28 1017.0
20260902170715 76 195 17.0 22.0 0.00 0.00 0.00 29 1017.0
20260902170214 76 191 12.0 25.0 0.00 0.00 0.00 30 1016.9
20260902165727 76 211 15.0 25.0 0.00 0.00 0.00 30 1017.0
20260902165241 76 220 13.0 23.0 0.00 0.00 0.00 31 1016.9
20260902164714 76 242 15.0 23.0 0.00 0.00 0.00 30 1016.9
20260902164227 76 231 12.0 20.0 0.00 0.00 0.00 30 1016.9
20260902163741 76 205 12.0 19.0 0.00 0.00 0.00 31 1016.8
20260902163214 76 214 13.0 19.0 0.00 0.00 0.00 31 1016.9
20260902162748 75 194 14.0 25.0 0.00 0.00 0.00 31 1016.8
20260902162241 75 200 16.0 25.0 0.00 0.00 0.00 31 1016.8
20260902161733 75 183 14.0 23.0 0.00 0.00 0.00 31 1016.9
20260902161226 75 200 15.0 23.0 0.00 0.00 0.00 31 1016.8
20260902160720 74 207 13.0 23.0 0.00 0.00 0.00 32 1016.8
20260902160240 74 196 18.0 24.0 0.00 0.00 0.00 31 1016.8
20260902155732 74 178 16.0 22.0 0.00 0.00 0.00 31 1016.9
20260902154740 74 209 15.0 21.0 0.00 0.00 0.00 31 1016.8
20260902154233 74 182 12.0 20.0 0.00 0.00 0.00 31 1016.8
20260902153747 74 196 14.0 20.0 0.00 0.00 0.00 31 1016.8
20260902153240 74 200 12.0 20.0 0.00 0.00 0.00 31 1016.9
20260902152734 73 186 12.0 18.0 0.00 0.00 0.00 31 1016.9
20260902152227 73 189 9.0 18.0 0.00 0.00 0.00 32 1016.9
20260902151741 73 159 11.0 18.0 0.00 0.00 0.00 32 1016.9
20260902151254 73 214 12.0 19.0 0.00 0.00 0.00 32 1016.9
20260902150727 73 189 9.0 19.0 0.00 0.00 0.00 32 1016.8
20260902150226 73 184 7.0 19.0 0.00 0.00 0.00 32 1016.8
20260902145720 73 182 9.0 18.0 0.00 0.00 0.00 32 1016.8
20260902145214 72 189 10.0 18.0 0.00 0.00 0.00 32 1016.7
20260902144728 72 180 7.0 17.0 0.00 0.00 0.00 33 1016.7
20260902144242 72 182 10.0 17.0 0.00 0.00 0.00 33 1016.6
20260902143715 71 209 10.0 13.0 0.00 0.00 0.00 33 1016.7
20260902143250 71 208 7.0 12.0 0.00 0.00 0.00 34 1016.7
20260902142743 70 130 7.0 12.0 0.00 0.00 0.00 35 1016.6
20260902142216 70 205 6.0 11.0 0.00 0.00 0.00 35 1016.5
20260902141714 70 192 7.0 16.0 0.00 0.00 0.00 36 1016.6
20260902141226 70 190 8.0 16.0 0.00 0.00 0.00 35 1016.6
20260902140740 69 197 7.0 17.0 0.00 0.00 0.00 35 1016.6
20260902140232 69 204 7.0 17.0 0.00 0.00 0.00 35 1016.5
20260902135726 69 136 10.0 17.0 0.00 0.00 0.00 36 1016.4
20260902135219 69 190 8.0 14.0 0.00 0.00 0.00 36 1016.4
20260902134714 69 179 8.0 18.0 0.00 0.00 0.00 36 1016.2
20260902134227 69 203 8.0 18.0 0.00 0.00 0.00 36 1016.3
20260902133721 69 197 8.0 17.0 0.00 0.00 0.00 36 1016.4
20260902133217 69 185 10.0 17.0 0.00 0.00 0.00 36 1016.3
20260902132730 69 180 10.0 18.0 0.00 0.00 0.00 36 1016.2
20260902132224 69 180 8.0 18.0 0.00 0.00 0.00 36 1016.3
20260902131716 69 200 9.0 16.0 0.00 0.00 0.00 36 1016.4
20260902131248 69 196 10.0 21.0 0.00 0.00 0.00 36 1016.3
20260902130741 69 195 11.0 20.0 0.00 0.00 0.00 36 1016.3
20260902130254 69 172 8.0 23.0 0.00 0.00 0.00 36 1016.3
20260902125726 69 186 11.0 23.0 0.00 0.00 0.00 35 1016.2
20260902125220 69 192 9.0 18.0 0.00 0.00 0.00 36 1016.1
20260902124714 69 126 10.0 20.0 0.00 0.00 0.00 35 1016.2
20260902124227 69 198 9.0 20.0 0.00 0.00 0.00 35 1016.1
20260902123725 69 217 10.0 20.0 0.00 0.00 0.00 34 1016.1
20260902123218 69 186 10.0 22.0 0.00 0.00 0.00 34 1016.0
20260902122732 69 178 9.0 17.0 0.00 0.00 0.00 35 1016.0
20260902122223 68 169 9.0 17.0 0.00 0.00 0.00 36 1016.0
20260902121717 68 190 10.0 17.0 0.00 0.00 0.00 36 1016.0
20260902121249 68 188 10.0 15.0 0.00 0.00 0.00 36 1016.1
20260902120722 68 202 9.0 20.0 0.00 0.00 0.00 36 1016.1
20260902120217 69 183 10.0 20.0 0.00 0.00 0.00 35 1016.1
20260902115715 69 205 10.0 18.0 0.00 0.00 0.00 34 1016.0
20260902115229 69 207 11.0 20.0 0.00 0.00 0.00 34 1016.0
20260902114723 69 188 12.0 22.0 0.00 0.00 0.00 34 1016.0
20260902114217 69 186 12.0 22.0 0.00 0.00 0.00 35 1016.0
20260902113731 69 191 11.0 20.0 0.00 0.00 0.00 35 1016.0
20260902113225 69 187 10.0 20.0 0.00 0.00 0.00 35 1016.0
20260902112718 69 182 9.0 15.0 0.00 0.00 0.00 35 1016.1
20260902112233 69 180 9.0 18.0 0.00 0.00 0.00 34 1016.1
20260902111730 69 190 8.0 18.0 0.00 0.00 0.00 34 1016.1
20260902111224 69 195 10.0 19.0 0.00 0.00 0.00 33 1016.1
20260902110718 70 165 10.0 18.0 0.00 0.00 0.00 33 1016.0
20260902110214 69 192 9.0 17.0 0.00 0.00 0.00 33 1016.0
20260902105727 70 182 10.0 16.0 0.00 0.00 0.00 32 1016.0
20260902105221 70 186 8.0 18.0 0.00 0.00 0.00 32 1016.0
20260902104735 70 191 11.0 20.0 0.00 0.00 0.00 32 1015.9
20260902104228 71 195 9.0 20.0 0.00 0.00 0.00 31 1015.8
20260902103726 71 182 11.0 17.0 0.00 0.00 0.00 31 1015.8
20260902103220 71 161 10.0 19.0 0.00 0.00 0.00 31 1015.8
20260902102733 71 167 10.0 20.0 0.00 0.00 0.00 31 1015.8
20260902102227 71 171 10.0 21.0 0.00 0.00 0.00 31 1015.9
20260902101721 71 219 11.0 21.0 0.00 0.00 0.00 31 1015.9
20260902101215 71 189 10.0 21.0 0.00 0.00 0.00 31 1015.9
20260902100729 71 195 11.0 19.0 0.00 0.00 0.00 31 1015.9
20260902100223 71 194 10.0 21.0 0.00 0.00 0.00 31 1015.9
20260902095736 71 151 10.0 21.0 0.00 0.00 0.00 31 1015.9
20260902095213 71 177 9.0 20.0 0.00 0.00 0.00 31 1015.9
20260902094747 71 185 9.0 21.0 0.00 0.00 0.00 30 1015.9
20260902094221 71 176 13.0 21.0 0.00 0.00 0.00 30 1015.9
20260902093715 71 178 9.0 16.0 0.00 0.00 0.00 30 1015.9
20260902093229 71 169 9.0 19.0 0.00 0.00 0.00 30 1015.9
20260902092723 71 149 10.0 16.0 0.00 0.00 0.00 30 1015.9
20260902092217 71 200 10.0 16.0 0.00 0.00 0.00 30 1015.9
20260902091731 71 178 11.0 20.0 0.00 0.00 0.00 30 1016.0
20260902091245 72 210 11.0 22.0 0.00 0.00 0.00 30 1015.9
20260902090722 72 190 11.0 24.0 0.00 0.00 0.00 29 1015.9
20260902090217 72 201 8.0 24.0 0.00 0.00 0.00 29 1016.0
20260902085731 72 187 12.0 25.0 0.00 0.00 0.00 29 1016.0
20260902085225 72 163 13.0 25.0 0.00 0.00 0.00 29 1016.0
20260902084719 72 159 10.0 18.0 0.00 0.00 0.00 29 1016.0
20260902084233 72 174 8.0 16.0 0.00 0.00 0.00 29 1016.0
20260902083727 72 182 10.0 18.0 0.00 0.00 0.00 29 1016.0
20260902083225 72 194 10.0 18.0 0.00 0.00 0.00 29 1016.1
20260902082718 72 171 10.0 19.0 0.00 0.00 0.00 29 1016.2
20260902082232 72 185 9.0 19.0 0.00 0.00 0.00 29 1016.1
20260902081747 72 202 9.0 19.0 0.00 0.00 0.00 29 1016.2
20260902081219 72 191 9.0 15.0 0.00 0.00 0.00 29 1016.1
20260902080713 71 170 9.0 16.0 0.00 0.00 0.00 29 1016.1
20260902080229 71 199 8.0 18.0 0.00 0.00 0.00 30 1016.1
20260902075722 71 149 10.0 18.0 0.00 0.00 0.00 29 1016.1
20260902075221 71 186 8.0 19.0 0.00 0.00 0.00 29 1016.1
20260902074714 71 150 7.0 14.0 0.00 0.00 0.00 29 1016.1
20260902074249 71 162 8.0 14.0 0.00 0.00 0.00 30 1016.0
20260902073722 71 182 6.0 13.0 0.00 0.00 0.00 29 1016.1
20260902073216 70 165 6.0 14.0 0.00 0.00 0.00 30 1016.1
20260902072731 70 183 9.0 14.0 0.00 0.00 0.00 29 1016.0
20260902072245 70 163 7.0 13.0 0.00 0.00 0.00 29 1016.1
20260902071718 71 197 6.0 13.0 0.00 0.00 0.00 29 1016.1
20260902071232 71 198 9.0 15.0 0.00 0.00 0.00 28 1016.1
20260902070730 71 145 8.0 15.0 0.00 0.00 0.00 27 1016.1
20260902070225 72 169 8.0 18.0 0.00 0.00 0.00 27 1016.2
20260902065719 72 171 8.0 18.0 0.00 0.00 0.00 27 1016.2
20260902065232 71 160 8.0 15.0 0.00 0.00 0.00 27 1016.3
20260902064746 71 187 6.0 11.0 0.00 0.00 0.00 27 1016.2
20260902064239 70 186 7.0 12.0 0.00 0.00 0.00 27 1016.2
20260902063732 71 191 7.0 12.0 0.00 0.00 0.00 27 1016.2
20260902063226 71 154 8.0 12.0 0.00 0.00 0.00 27 1016.2
20260902062719 71 159 8.0 12.0 0.00 0.00 0.00 26 1016.3
20260902062217 71 178 7.0 12.0 0.00 0.00 0.00 27 1016.2
20260902061751 71 185 9.0 13.0 0.00 0.00 0.00 28 1016.2
20260902061304 71 188 8.0 13.0 0.00 0.00 0.00 28 1016.2
20260902060716 71 192 8.0 13.0 0.00 0.00 0.00 28 1016.2
20260902060232 71 193 8.0 18.0 0.00 0.00 0.00 27 1016.2
20260902055725 71 203 9.0 18.0 0.00 0.00 0.00 27 1016.3
20260902055223 71 188 7.0 17.0 0.00 0.00 0.00 27 1016.3
20260902054717 71 200 8.0 17.0 0.00 0.00 0.00 27 1016.3
20260902054231 71 198 11.0 19.0 0.00 0.00 0.00 27 1016.4
20260902053724 72 169 9.0 19.0 0.00 0.00 0.00 27 1016.4
20260902053218 72 187 11.0 23.0 0.00 0.00 0.00 26 1016.3
20260902052731 72 157 10.0 23.0 0.00 0.00 0.00 27 1016.4
20260902052226 72 142 10.0 23.0 0.00 0.00 0.00 27 1016.4
20260902051719 72 190 10.0 16.0 0.00 0.00 0.00 27 1016.4
20260902051218 71 186 8.0 16.0 0.00 0.00 0.00 28 1016.4
20260902050731 71 182 7.0 16.0 0.00 0.00 0.00 27 1016.5
20260902050247 72 188 9.0 18.0 0.00 0.00 0.00 28 1016.4
20260902045719 72 165 9.0 19.0 0.00 0.00 0.00 27 1016.4
20260902045214 72 208 10.0 19.0 0.00 0.00 0.00 27 1016.4
20260902044727 72 158 9.0 18.0 0.00 0.00 0.00 27 1016.4
20260902044222 72 179 10.0 25.0 0.00 0.00 0.00 27 1016.4
20260902043715 72 179 10.0 25.0 0.00 0.00 0.00 27 1016.4
20260902043213 72 195 10.0 17.0 0.00 0.00 0.00 27 1016.4
20260902042747 72 227 9.0 18.0 0.00 0.00 0.00 27 1016.3
20260902042220 72 198 11.0 18.0 0.00 0.00 0.00 27 1016.2
20260902041713 72 175 10.0 16.0 0.00 0.00 0.00 28 1016.1
20260902041248 73 180 10.0 17.0 0.00 0.00 0.00 27 1016.1
20260902040720 72 144 9.0 14.0 0.00 0.00 0.00 27 1016.2
20260902040216 72 187 9.0 16.0 0.00 0.00 0.00 28 1016.0
20260902035730 73 196 9.0 16.0 0.00 0.00 0.00 27 1016.0
20260902035224 72 192 9.0 18.0 0.00 0.00 0.00 27 1016.0
20260902034716 72 181 8.0 18.0 0.00 0.00 0.00 28 1016.0
20260902034214 72 197 9.0 17.0 0.00 0.00 0.00 28 1015.9
20260902033748 72 186 8.0 13.0 0.00 0.00 0.00 28 1015.9
20260902033241 73 198 7.0 14.0 0.00 0.00 0.00 28 1015.8
20260902032715 73 169 8.0 17.0 0.00 0.00 0.00 29 1015.7
20260902032229 73 206 9.0 17.0 0.00 0.00 0.00 28 1015.8
20260902031723 73 182 7.0 16.0 0.00 0.00 0.00 27 1015.6
20260902031217 73 169 8.0 16.0 0.00 0.00 0.00 27 1015.5
20260902030731 73 190 7.0 13.0 0.00 0.00 0.00 27 1015.4
20260902030246 73 174 8.0 13.0 0.00 0.00 0.00 27 1015.4
20260902025722 74 175 8.0 13.0 0.00 0.05 0.00 27 1015.3
20260902025216 74 186 7.0 13.0 0.00 0.05 0.00 27 1015.2
20260902024730 74 186 8.0 14.0 0.00 0.05 0.00 26 1015.2
20260902024224 74 200 9.0 18.0 0.00 0.05 0.00 26 1015.2
20260902023718 74 199 10.0 18.0 0.00 0.05 0.00 26 1015.2
20260902023232 74 206 9.0 14.0 0.00 0.05 0.00 26 1015.2
20260902022726 74 189 8.0 14.0 0.00 0.05 0.00 26 1015.1
20260902022220 75 196 9.0 15.0 0.00 0.05 0.00 25 1015.1
20260902021717 75 202 9.0 15.0 0.00 0.05 0.00 26 1015.2
20260902021232 75 207 10.0 15.0 0.00 0.05 0.00 25 1015.0
20260902020725 75 193 8.0 16.0 0.00 0.05 0.00 25 1015.0
20260902020221 75 199 9.0 16.0 0.00 0.05 0.00 25 1015.0
20260902015714 76 205 10.0 17.0 0.00 0.05 0.00 24 1015.0
20260902015228 76 195 10.0 17.0 0.00 0.05 0.00 25 1015.0
20260902014721 76 209 8.0 17.0 0.00 0.05 0.00 25 1015.0
20260902014215 76 206 11.0 15.0 0.00 0.05 0.00 24 1014.9
20260902013713 77 214 10.0 15.0 0.00 0.05 0.00 24 1015.0
20260902013227 77 221 9.0 19.0 0.00 0.05 0.00 23 1015.0
20260902012740 78 220 11.0 19.0 0.00 0.05 0.00 23 1015.0
20260902012213 78 202 11.0 20.0 0.00 0.05 0.00 23 1015.0
20260902011728 78 208 12.0 20.0 0.00 0.05 0.00 22 1015.0
20260902011222 79 223 12.0 20.0 0.00 0.05 0.00 22 1015.0
20260902010715 79 227 13.0 20.0 0.00 0.05 0.00 21 1015.1
20260902010251 79 219 11.0 19.0 0.00 0.05 0.00 21 1015.1
20260902005723 80 234 13.0 23.0 0.00 0.05 0.00 21 1015.2
20260902005221 80 227 11.0 23.0 0.00 0.05 0.00 22 1015.2
20260902004715 80 360 15.0 24.0 0.00 0.05 0.00 20 1015.2
20260902004249 80 202 13.0 25.0 0.00 0.05 0.00 20 1015.2
20260902003722 80 209 12.0 25.0 0.00 0.05 0.00 19 1015.2
20260902003216 81 225 15.0 24.0 0.00 0.05 0.00 18 1015.2
20260902002730 81 175 11.0 21.0 0.00 0.05 0.00 19 1015.2
20260902002224 81 202 12.0 21.0 0.00 0.05 0.00 18 1015.2
20260902001718 81 218 10.0 19.0 0.00 0.05 0.00 19 1015.2
20260902001218 81 217 11.0 20.0 0.00 0.05 0.00 21 1015.4
20260902000732 81 194 14.0 23.0 0.00 0.05 0.00 21 1015.4
20260902000226 81 214 14.0 23.0 0.00 0.05 0.00 21 1015.5
20260901235719 81 209 15.0 23.0 0.00 0.10 0.00 20 1015.4
20260901235233 81 193 16.0 25.0 0.00 0.10 0.00 22 1015.4
20260901234727 81 223 19.0 25.0 0.00 0.10 0.00 22 1015.5
20260901234221 81 210 16.0 26.0 0.00 0.10 0.00 21 1015.5
20260901233719 81 188 17.0 26.0 0.00 0.10 0.00 22 1015.6
20260901233233 81 200 15.0 25.0 0.00 0.10 0.00 20 1015.6